Weather in Pasadena

United States     34°09′09″N   118°07′53″W
В апреле 2022 года жителям России запретили посещать сайт meteo.paraplan.net по решению Генеральной прокуратуры. Аудитория сайта уменьшилась в 10 раз. Владельцы сайта не видят смысла в поддержке погодного сервера в таких условиях. Сайт будет закрыт в октябре.
temp.,
°C
wind,
m/s
gust,
m/s
humid.,
%
clouds,
%
prec.,
mm/h
press.,
hPa
HPBL,
m
4 october, tue
tue423:00+21ne01540 0.0 101466
02:00+20ene11490 0.0 101445
05:00+20nne11430 0.0 101428
08:00+23nne11340 0.0 101444
11:00+28sw32260 0.0 1014841
14:00+30sw33210 0.0 10131051
17:00+29sw32270 0.0 1012842
20:00+23s01450 0.0 1014124
5 october, wed
wed523:00+22e11490 0.0 101485
02:00+21e11490 0.0 101466
05:00+20nne11450 0.0 101431
08:00+23nne11360 0.0 101549
11:00+28sw32270 0.0 1015806
14:00+30sw33230 0.0 10131086
17:00+29sw33260 0.0 1013883
20:00+24wsw11420 0.0 1015128
6 october, thu
thu623:00+22e11440 0.0 101592
02:00+21e11400 0.0 101558
05:00+21nne11370 0.0 101521
08:00+24nne11290 0.0 101637
11:00+29sw32240 0.0 10161023
14:00+31sw332024 0.0 10151369
17:00+29sw33280 0.0 1014700
20:00+24n11390 0.0 1015119
7 october, fri
fri723:00+22e11380 0.0 101682
02:00+22ne11340 0.0 101646
05:00+22nne22290 0.0 101622
08:00+24nne22230 0.0 101647
11:00+31wsw23150 0.0 10151768
14:00+32sw23172 0.0 10141905
17:00+30ssw22204 0.0 10131185
20:00+24ese11330 0.0 1015120
8 october, sat
sat823:00+23e12350 0.0 101685
02:00+22ene11330 0.0 101639
05:00+21ene11360 0.0 101634
08:00+24ne11290 0.0 101642
11:00+29sw23241 0.0 10161188
14:00+30ssw332370 0.0 10141502
17:00+27s323456 0.0 1014732
20:00+22se22531 0.0 1016191